Weather in Bekrino

Russia / Smolensk Oblast     55°13′29″N   35°01′50″E
temp.,
°C
wind,
m/s
gust,
m/s
humid.,
%
clouds,
%
prec.,
mm/h
press.,
hPa
HPBL,
m
6 may, thu
thu600:00+7s4129491 0.0 1006260
03:00+7sse41297100 0.0 1005314
06:00+9s51594100 0.0 1003579
09:00+11s81581100 0.1 10021060
12:00+12s81567100 0.1 10011532
15:00+8wsw71293100 3.2 10031274
18:00+7sw5119099 0.6 1005882
21:00+6sw41188100 1.0 1007621
7 may, fri
fri700:00+4ssw412945 0.0 1009361
03:00+3ssw412915 0.0 1010356
06:00+2ssw411910 0.0 1011299
09:00+8ssw510705 0.0 1012697
12:00+9wsw6117299 0.5 10121317
15:00+12sw5965100 1.3 10111548
18:00+11ssw4877100 1.1 1010699
21:00+8s31188100 1.4 1011429
8 may, sat
sat800:00+8sse51392100 1.3 1008959
03:00+8sse61393100 5.3 1006923
06:00+8s41096100 0.1 1005622
09:00+9sse4997100 2.3 1003541
12:00+9ssw4896100 1.3 1002573
15:00+10sw71271100 1.9 10031326
18:00+6wsw6127631 0.1 10051237
21:00+5sw5128186 0.1 10051091
9 may, sun
sun900:00+4wsw61382100 0.1 10051264
03:00+4w61189100 0.2 10071114
06:00+4wnw61296100 0.2 10101076
09:00+6nw7107193 0.3 10141141
12:00+10nw7104914 0.0 10161969
15:00+11nw68415 0.0 10182144
18:00+10nnw48513 0.0 10201783
21:00+5nw22681 0.0 102325
10 may, mon
mon1000:00+4nw22685 0.0 102411
03:00+3wnw117647 0.0 102611
06:00+4wsw117761 0.0 102711
09:00+11wsw11546 0.0 1028461
12:00+14wnw1243100 0.0 10271467
15:00+15nnw22445 0.0 10261392
18:00+14ne22546 0.0 10261083
21:00+9e22725 0.0 102813